Content
SEND FEEDBACK

Daily
Averages
Monthly
Summary
United States of America

CHELSEA, MASSACHUSETTS


Home > North America > United States > Massachusetts
Elevation: 30 feet     Latitude: 42 24N     Longitude: 071 06W

WEATHER
 
SELECT A DAY
Number of Records: 205,295;   Date Range: 1/1/95 - 10/19/14
 
SHARE

PRINT THIS DATA

[ ← Previous Day ]
WEATHER ALMANAC - JULY 6, 2013
[ Next Day → ]
[ °C ]   °F
Weather ElementAverageHighLow
Temperature86 °F93 °F (3:54 pm)79 °F (2:54 am)
Dewpoint68.2 °F72 °F (1:54 am)61 °F (10:54 pm)
Humidity56.4 %77 % (2:54 am)42 % (4:54 pm)
Barometer30.03 in30.07 in (1:54 am)29.97 in (5:54 pm)
Wind Speed11.6 mph16.1 mph (6:54 pm)
Wind Gust24.2 mph (5:54 pm)
Weather ElementAverage
Visibility10 mi
Wind DirectionW (273.5 °)

Weather ElementTotal
Precipitation---
Cooling Degree Days21 (Base 65)
Growing Degree Days36 (Base 50)
Averaged from 23 records on July 6, 2013
WEATHER CONDITIONS BREAKOUT
WIND DIRECTION BREAKOUT
WEATHER BY HOUR - JULY 6, 2013
[ °C ]   °F
Local TimeTemperatureDewpointHumidityBarometerVisibilityWind DirectionWind SpeedGust SpeedPrecipitationEventsConditions
1:54 AM80.1 °F72.0 °F76 %30.07 in10.0 miWSW (250°)9.2 mphClear
2:54 AM79.0 °F71.1 °F77 %30.06 in10.0 miWSW (240°)9.2 mphClear
3:54 AM79.0 °F71.1 °F77 %30.06 in10.0 miWSW (250°)8.1 mphClear
4:54 AM79.0 °F71.1 °F77 %30.06 in10.0 miWSW (250°)8.1 mphClear
5:54 AM79.0 °F71.1 °F77 %30.07 in10.0 miWSW (250°)9.2 mphClear
6:54 AM81.0 °F71.1 °F72 %30.07 in10.0 miWest (280°)9.2 mphClear
7:54 AM82.9 °F71.1 °F67 %30.06 in10.0 miWest (270°)9.2 mphClear
8:54 AM86.0 °F70.0 °F59 %30.06 in10.0 miWest (280°)11.5 mphClear
9:54 AM88.0 °F70.0 °F55 %30.04 in10.0 miWest (260°)15.0 mph23.0 mphPartly Cloudy
10:54 AM90.0 °F70.0 °F52 %30.04 in10.0 miWest (270°)12.7 mphPartly Cloudy
11:54 AM91.0 °F70.0 °F50 %30.03 in10.0 miWest (270°)13.8 mph20.7 mphMostly Cloudy
12:54 PM91.0 °F70.0 °F50 %30.02 in10.0 miWest (280°)13.8 mph19.6 mphMostly Cloudy
1:54 PM91.9 °F69.1 °F47 %30.01 in10.0 miWest (270°)13.8 mphMostly Cloudy
2:54 PM91.0 °F69.1 °F48 %30.01 in10.0 miNW (310°)15.0 mph21.9 mphMostly Cloudy
3:54 PM93.0 °F68.0 °F44 %30.00 in10.0 miWest (280°)15.0 mphMostly Cloudy
4:54 PM91.9 °F66.0 °F42 %29.98 in10.0 miWest (260°)15.0 mph21.9 mphMostly Cloudy
5:54 PM91.0 °F64.9 °F42 %29.97 in10.0 miWest (280°)15.0 mph24.2 mphMostly Cloudy
6:54 PM90.0 °F64.9 °F43 %29.97 in10.0 miWNW (290°)16.1 mph21.9 mphMostly Cloudy
7:54 PM88.0 °F64.9 °F46 %29.98 in10.0 miWNW (300°)12.7 mph19.6 mphMostly Cloudy
8:54 PM86.0 °F66.0 °F51 %29.99 in10.0 miWest (280°)8.1 mphMostly Cloudy
9:54 PM84.9 °F64.0 °F49 %30.01 in10.0 miWNW (290°)9.2 mphScattered Clouds
10:54 PM82.9 °F61.0 °F47 %30.01 in10.0 miWest (280°)9.2 mphPartly Cloudy
11:54 PM82.0 °F61.0 °F49 %30.01 in10.0 miWNW (300°)9.2 mphClear
Hourly data recorded from KBOS, located miles away from Chelsea, Massachusetts







STORIES FROM OUR PARTNERS